Year,Month,Day,Hour,Minute,Value (Times are PST for temperature in C)
2006,06,12,00,00,14.00
2006,06,12,00,01,14.00
2006,06,12,00,02,13.90
2006,06,12,00,03,13.90
2006,06,12,00,04,13.80
2006,06,12,00,05,13.70
2006,06,12,00,06,13.70
2006,06,12,00,07,13.70
2006,06,12,00,08,13.70
2006,06,12,00,09,13.70
2006,06,12,00,10,13.60
2006,06,12,00,11,13.60
2006,06,12,00,12,13.60
2006,06,12,00,13,13.50
2006,06,12,00,14,13.50
2006,06,12,00,15,13.40
2006,06,12,00,16,13.40
2006,06,12,00,17,13.40
2006,06,12,00,18,13.30
2006,06,12,00,19,13.30
2006,06,12,00,20,13.30
2006,06,12,00,21,13.30
2006,06,12,00,22,13.30
2006,06,12,00,23,13.30
2006,06,12,00,24,13.30
2006,06,12,00,25,13.30
2006,06,12,00,26,13.30
2006,06,12,00,27,13.30
2006,06,12,00,28,13.30
2006,06,12,00,29,13.30
2006,06,12,00,30,13.30
2006,06,12,00,31,13.30
2006,06,12,00,32,13.30
2006,06,12,00,33,13.30
2006,06,12,00,34,13.20
2006,06,12,00,35,13.20
2006,06,12,00,36,13.20
2006,06,12,00,37,13.20
2006,06,12,00,38,13.20
2006,06,12,00,39,13.20
2006,06,12,00,40,13.20
2006,06,12,00,41,13.20
2006,06,12,00,42,13.20
2006,06,12,00,43,13.20
2006,06,12,00,44,13.20
2006,06,12,00,45,13.20
2006,06,12,00,46,13.20
2006,06,12,00,47,13.30
2006,06,12,00,48,13.30
2006,06,12,00,49,13.30
2006,06,12,00,50,13.30
2006,06,12,00,51,13.30
2006,06,12,00,52,13.30
2006,06,12,00,53,13.30
2006,06,12,00,54,13.20
2006,06,12,00,55,13.20
2006,06,12,00,56,13.10
2006,06,12,00,57,13.10
2006,06,12,00,58,13.00
2006,06,12,00,59,13.00
2006,06,12,01,00,13.00
2006,06,12,01,01,12.90
2006,06,12,01,02,12.90
2006,06,12,01,03,12.90
2006,06,12,01,04,12.90
2006,06,12,01,05,12.90
2006,06,12,01,06,12.80
2006,06,12,01,07,12.80
2006,06,12,01,08,12.80
2006,06,12,01,09,12.90
2006,06,12,01,10,12.90
2006,06,12,01,11,12.90
2006,06,12,01,12,13.00
2006,06,12,01,13,13.00
2006,06,12,01,14,13.00
2006,06,12,01,15,13.00
2006,06,12,01,16,13.00
2006,06,12,01,17,13.00
2006,06,12,01,18,13.00
2006,06,12,01,19,13.00
2006,06,12,01,20,13.00
2006,06,12,01,21,13.00
2006,06,12,01,22,12.90
2006,06,12,01,23,12.90
2006,06,12,01,24,12.90
2006,06,12,01,25,12.90
2006,06,12,01,26,12.80
2006,06,12,01,27,12.80
2006,06,12,01,28,12.80
2006,06,12,01,29,12.80
2006,06,12,01,30,12.80
2006,06,12,01,31,12.80
2006,06,12,01,32,12.70
2006,06,12,01,33,12.70
2006,06,12,01,34,12.70
2006,06,12,01,35,12.70
2006,06,12,01,36,12.70
2006,06,12,01,37,12.70
2006,06,12,01,38,12.70
2006,06,12,01,39,12.70
2006,06,12,01,40,12.70
2006,06,12,01,41,12.70
2006,06,12,01,42,12.70
2006,06,12,01,43,12.70
2006,06,12,01,44,12.70
2006,06,12,01,45,12.70
2006,06,12,01,46,12.70
2006,06,12,01,47,12.70
2006,06,12,01,48,12.70
2006,06,12,01,49,12.70
2006,06,12,01,50,12.80
2006,06,12,01,51,12.80
2006,06,12,01,52,12.80
2006,06,12,01,53,12.80
2006,06,12,01,54,12.80
2006,06,12,01,55,12.90
2006,06,12,01,56,12.90
2006,06,12,01,57,12.90
2006,06,12,01,58,12.90
2006,06,12,01,59,13.00
2006,06,12,02,00,13.00
2006,06,12,02,01,13.10
2006,06,12,02,02,13.10
2006,06,12,02,03,13.20
2006,06,12,02,04,13.20
2006,06,12,02,05,13.20
2006,06,12,02,06,13.30
2006,06,12,02,07,13.30
2006,06,12,02,08,13.30
2006,06,12,02,09,13.30
2006,06,12,02,10,13.30
2006,06,12,02,11,13.30
2006,06,12,02,12,13.30
2006,06,12,02,13,13.30
2006,06,12,02,14,13.30
2006,06,12,02,15,13.30
2006,06,12,02,16,13.30
2006,06,12,02,17,13.30
2006,06,12,02,18,13.30
2006,06,12,02,19,13.30
2006,06,12,02,20,13.30
2006,06,12,02,21,13.30
2006,06,12,02,22,13.30
2006,06,12,02,23,13.30
2006,06,12,02,24,13.20
2006,06,12,02,25,13.20
2006,06,12,02,26,13.20
2006,06,12,02,27,13.20
2006,06,12,02,28,13.20
2006,06,12,02,29,13.20
2006,06,12,02,30,13.20
2006,06,12,02,31,13.20
2006,06,12,02,32,13.20
2006,06,12,02,33,13.20
2006,06,12,02,34,13.20
2006,06,12,02,35,13.20
2006,06,12,02,36,13.20
2006,06,12,02,37,13.20
2006,06,12,02,38,13.20
2006,06,12,02,39,13.20
2006,06,12,02,40,13.20
2006,06,12,02,41,13.30
2006,06,12,02,42,13.30
2006,06,12,02,43,13.30
2006,06,12,02,44,13.30
2006,06,12,02,45,13.30
2006,06,12,02,46,13.30
2006,06,12,02,47,13.30
2006,06,12,02,48,13.30
2006,06,12,02,49,13.30
2006,06,12,02,50,13.30
2006,06,12,02,51,13.30
2006,06,12,02,52,13.30
2006,06,12,02,53,13.30
2006,06,12,02,54,13.30
2006,06,12,02,55,13.30
2006,06,12,02,56,13.30
2006,06,12,02,57,13.30
2006,06,12,02,58,13.30
2006,06,12,02,59,13.30
2006,06,12,03,00,13.30
2006,06,12,03,01,13.30
2006,06,12,03,02,13.30
2006,06,12,03,03,13.30
2006,06,12,03,04,13.30
2006,06,12,03,05,13.20
2006,06,12,03,06,13.20
2006,06,12,03,07,13.10
2006,06,12,03,08,13.10
2006,06,12,03,09,13.00
2006,06,12,03,10,13.00
2006,06,12,03,11,13.00
2006,06,12,03,12,12.90
2006,06,12,03,13,12.90
2006,06,12,03,14,12.80
2006,06,12,03,15,12.80
2006,06,12,03,16,12.80
2006,06,12,03,17,12.70
2006,06,12,03,18,12.70
2006,06,12,03,19,12.60
2006,06,12,03,20,12.60
2006,06,12,03,21,12.50
2006,06,12,03,22,12.50
2006,06,12,03,23,12.50
2006,06,12,03,24,12.50
2006,06,12,03,25,12.40
2006,06,12,03,26,12.40
2006,06,12,03,27,12.40
2006,06,12,03,28,12.40
2006,06,12,03,29,12.30
2006,06,12,03,30,12.30
2006,06,12,03,31,12.30
2006,06,12,03,32,12.30
2006,06,12,03,33,12.30
2006,06,12,03,34,12.30
2006,06,12,03,35,12.30
2006,06,12,03,36,12.20
2006,06,12,03,37,12.20
2006,06,12,03,38,12.20
2006,06,12,03,39,12.20
2006,06,12,03,40,12.20
2006,06,12,03,41,12.20
2006,06,12,03,42,12.20
2006,06,12,03,43,12.30
2006,06,12,03,44,12.30
2006,06,12,03,45,12.30
2006,06,12,03,46,12.30
2006,06,12,03,47,12.30
2006,06,12,03,48,12.30
2006,06,12,03,49,12.30
2006,06,12,03,50,12.30
2006,06,12,03,51,12.30
2006,06,12,03,52,12.30
2006,06,12,03,53,12.30
2006,06,12,03,54,12.30
2006,06,12,03,55,12.30
2006,06,12,03,56,12.30
2006,06,12,03,57,12.30
2006,06,12,03,58,12.30
2006,06,12,03,59,12.20
2006,06,12,04,00,12.20
2006,06,12,04,01,12.20
2006,06,12,04,02,12.20
2006,06,12,04,03,12.20
2006,06,12,04,04,12.20
2006,06,12,04,05,12.20
2006,06,12,04,06,12.20
2006,06,12,04,07,12.20
2006,06,12,04,08,12.20
2006,06,12,04,09,12.20
2006,06,12,04,10,12.30
2006,06,12,04,11,12.30
2006,06,12,04,12,12.30
2006,06,12,04,13,12.30
2006,06,12,04,14,12.30
2006,06,12,04,15,12.30
2006,06,12,04,16,12.30
2006,06,12,04,17,12.30
2006,06,12,04,18,12.30
2006,06,12,04,19,12.30
2006,06,12,04,20,12.20
2006,06,12,04,21,12.20
2006,06,12,04,22,12.20
2006,06,12,04,23,12.20
2006,06,12,04,24,12.20
2006,06,12,04,25,12.10
2006,06,12,04,26,12.10
2006,06,12,04,27,12.10
2006,06,12,04,28,12.10
2006,06,12,04,29,12.10
2006,06,12,04,30,12.00
2006,06,12,04,31,12.00
2006,06,12,04,32,11.90
2006,06,12,04,33,11.90
2006,06,12,04,34,11.80
2006,06,12,04,35,11.80
2006,06,12,04,36,11.80
2006,06,12,04,37,11.80
2006,06,12,04,38,11.80
2006,06,12,04,39,11.80
2006,06,12,04,40,11.90
2006,06,12,04,41,11.90
2006,06,12,04,42,11.90
2006,06,12,04,43,11.90
2006,06,12,04,44,11.90
2006,06,12,04,45,11.90
2006,06,12,04,46,11.90
2006,06,12,04,47,11.90
2006,06,12,04,48,11.90
2006,06,12,04,49,11.90
2006,06,12,04,50,11.80
2006,06,12,04,51,11.80
2006,06,12,04,52,11.80
2006,06,12,04,53,11.80
2006,06,12,04,54,11.80
2006,06,12,04,55,11.80
2006,06,12,04,56,11.70
2006,06,12,04,57,11.70
2006,06,12,04,58,11.70
2006,06,12,04,59,11.60
2006,06,12,05,00,11.60
2006,06,12,05,01,11.60
2006,06,12,05,02,11.60
2006,06,12,05,03,11.60
2006,06,12,05,04,11.60
2006,06,12,05,05,11.60
2006,06,12,05,06,11.60
2006,06,12,05,07,11.60
2006,06,12,05,08,11.60
2006,06,12,05,09,11.70
2006,06,12,05,10,11.70
2006,06,12,05,11,11.70
2006,06,12,05,12,11.70
2006,06,12,05,13,11.80
2006,06,12,05,14,11.80
2006,06,12,05,15,11.80
2006,06,12,05,16,11.80
2006,06,12,05,17,11.80
2006,06,12,05,18,11.80
2006,06,12,05,19,11.80
2006,06,12,05,20,11.80
2006,06,12,05,21,11.80
2006,06,12,05,22,11.80
2006,06,12,05,23,11.80
2006,06,12,05,24,11.80
2006,06,12,05,25,11.90
2006,06,12,05,26,11.90
2006,06,12,05,27,11.90
2006,06,12,05,28,11.90
2006,06,12,05,29,11.90
2006,06,12,05,30,11.90
2006,06,12,05,31,11.90
2006,06,12,05,32,11.90
2006,06,12,05,33,11.90
2006,06,12,05,34,11.90
2006,06,12,05,35,11.90
2006,06,12,05,36,11.90
2006,06,12,05,37,11.80
2006,06,12,05,38,11.80
2006,06,12,05,39,11.80
2006,06,12,05,40,11.80
2006,06,12,05,41,11.80
2006,06,12,05,42,11.80
2006,06,12,05,43,11.70
2006,06,12,05,44,11.80
2006,06,12,05,45,11.80
2006,06,12,05,46,11.80
2006,06,12,05,47,11.80
2006,06,12,05,48,11.80
2006,06,12,05,49,11.90
2006,06,12,05,50,11.90
2006,06,12,05,51,11.90
2006,06,12,05,52,12.00
2006,06,12,05,53,12.00
2006,06,12,05,54,12.00
2006,06,12,05,55,12.10
2006,06,12,05,56,12.20
2006,06,12,05,57,12.30
2006,06,12,05,58,12.30
2006,06,12,05,59,12.30
2006,06,12,06,00,12.30
2006,06,12,06,01,12.30
2006,06,12,06,02,12.30
2006,06,12,06,03,12.30
2006,06,12,06,04,12.30
2006,06,12,06,05,12.30
2006,06,12,06,06,12.30
2006,06,12,06,07,12.30
2006,06,12,06,08,12.30
2006,06,12,06,09,12.30
2006,06,12,06,10,12.30
2006,06,12,06,11,12.30
2006,06,12,06,12,12.30
2006,06,12,06,13,12.30
2006,06,12,06,14,12.30
2006,06,12,06,15,12.30
2006,06,12,06,16,12.30
2006,06,12,06,17,12.30
2006,06,12,06,18,12.30
2006,06,12,06,19,12.30
2006,06,12,06,20,12.40
2006,06,12,06,21,12.40
2006,06,12,06,22,12.40
2006,06,12,06,23,12.50
2006,06,12,06,24,12.50
2006,06,12,06,25,12.60
2006,06,12,06,26,12.60
2006,06,12,06,27,12.80
2006,06,12,06,28,12.80
2006,06,12,06,29,12.80
2006,06,12,06,30,12.90
2006,06,12,06,31,12.90
2006,06,12,06,32,13.00
2006,06,12,06,33,13.00
2006,06,12,06,34,13.10
2006,06,12,06,35,13.20
2006,06,12,06,36,13.20
2006,06,12,06,37,13.30
2006,06,12,06,38,13.40
2006,06,12,06,39,13.50
2006,06,12,06,40,13.60
2006,06,12,06,41,13.70
2006,06,12,06,42,13.70
2006,06,12,06,43,13.90
2006,06,12,06,44,13.90
2006,06,12,06,45,14.00
2006,06,12,06,46,14.10
2006,06,12,06,47,14.20
2006,06,12,06,48,14.20
2006,06,12,06,49,14.30
2006,06,12,06,50,14.40
2006,06,12,06,51,14.40
2006,06,12,06,52,14.60
2006,06,12,06,53,14.70
2006,06,12,06,54,14.80
2006,06,12,06,55,14.90
2006,06,12,06,56,14.90
2006,06,12,06,57,15.00
2006,06,12,06,58,15.10
2006,06,12,06,59,15.20
2006,06,12,07,00,15.30
2006,06,12,07,01,15.30
2006,06,12,07,02,15.40
2006,06,12,07,03,15.50
2006,06,12,07,04,15.50
2006,06,12,07,05,15.60
2006,06,12,07,06,15.70
2006,06,12,07,07,15.80
2006,06,12,07,08,15.90
2006,06,12,07,09,16.00
2006,06,12,07,10,16.10
2006,06,12,07,11,16.10
2006,06,12,07,12,16.20
2006,06,12,07,13,16.30
2006,06,12,07,14,16.40
2006,06,12,07,15,16.40
2006,06,12,07,16,16.50
2006,06,12,07,17,16.60
2006,06,12,07,18,16.70
2006,06,12,07,19,16.70
2006,06,12,07,20,16.80
2006,06,12,07,21,16.80
2006,06,12,07,22,16.90
2006,06,12,07,23,17.00
2006,06,12,07,24,17.00
2006,06,12,07,25,17.10
2006,06,12,07,26,17.20
2006,06,12,07,27,17.20
2006,06,12,07,28,17.40
2006,06,12,07,29,17.50
2006,06,12,07,30,17.60
2006,06,12,07,31,17.70
2006,06,12,07,32,17.80
2006,06,12,07,33,17.90
2006,06,12,07,34,17.90
2006,06,12,07,35,17.90
2006,06,12,07,36,18.00
2006,06,12,07,37,18.10
2006,06,12,07,38,18.10
2006,06,12,07,39,18.10
2006,06,12,07,40,18.00
2006,06,12,07,41,18.10
2006,06,12,07,42,18.00
2006,06,12,07,43,18.10
2006,06,12,07,44,18.10
2006,06,12,07,45,18.10
2006,06,12,07,46,17.90
2006,06,12,07,47,17.90
2006,06,12,07,48,17.90
2006,06,12,07,49,17.90
2006,06,12,07,50,17.90
2006,06,12,07,51,17.90
2006,06,12,07,52,17.90
2006,06,12,07,53,17.90
2006,06,12,07,54,17.80
2006,06,12,07,55,17.80
2006,06,12,07,56,17.80
2006,06,12,07,57,17.80
2006,06,12,07,58,17.80
2006,06,12,07,59,17.80
2006,06,12,08,00,17.70
2006,06,12,08,01,17.70
2006,06,12,08,02,17.70
2006,06,12,08,03,17.70
2006,06,12,08,04,17.70
2006,06,12,08,05,17.70
2006,06,12,08,06,17.70
2006,06,12,08,07,17.70
2006,06,12,08,08,17.80
2006,06,12,08,09,17.80
2006,06,12,08,10,17.80
2006,06,12,08,11,17.90
2006,06,12,08,12,17.90
2006,06,12,08,13,18.00
2006,06,12,08,14,18.10
2006,06,12,08,15,18.20
2006,06,12,08,16,18.20
2006,06,12,08,17,18.20
2006,06,12,08,18,18.30
2006,06,12,08,19,18.30
2006,06,12,08,20,18.30
2006,06,12,08,21,18.30
2006,06,12,08,22,18.30
2006,06,12,08,23,18.30
2006,06,12,08,24,18.40
2006,06,12,08,25,18.40
2006,06,12,08,26,18.50
2006,06,12,08,27,18.50
2006,06,12,08,28,18.60
2006,06,12,08,29,18.60
2006,06,12,08,30,18.60
2006,06,12,08,31,18.70
2006,06,12,08,32,18.70
2006,06,12,08,33,18.70
2006,06,12,08,34,18.70
2006,06,12,08,35,18.70
2006,06,12,08,36,18.80
2006,06,12,08,37,18.90
2006,06,12,08,38,18.90
2006,06,12,08,39,19.00
2006,06,12,08,40,19.10
2006,06,12,08,41,19.10
2006,06,12,08,42,19.20
2006,06,12,08,43,19.30
2006,06,12,08,44,19.20
2006,06,12,08,45,19.20
2006,06,12,08,46,19.30
2006,06,12,08,47,19.30
2006,06,12,08,48,19.30
2006,06,12,08,49,19.40
2006,06,12,08,50,19.50
2006,06,12,08,51,19.60
2006,06,12,08,52,19.60
2006,06,12,08,53,19.70
2006,06,12,08,54,19.60
2006,06,12,08,55,19.60
2006,06,12,08,56,19.60
2006,06,12,08,57,19.50
2006,06,12,08,58,19.50
2006,06,12,08,59,19.50
2006,06,12,09,00,19.50
2006,06,12,09,01,19.50
2006,06,12,09,02,19.60
2006,06,12,09,03,19.70
2006,06,12,09,04,19.90
2006,06,12,09,05,19.90
2006,06,12,09,06,20.00
2006,06,12,09,07,20.10
2006,06,12,09,08,20.10
2006,06,12,09,09,20.10
2006,06,12,09,10,20.20
2006,06,12,09,11,20.20
2006,06,12,09,12,20.30
2006,06,12,09,13,20.40
2006,06,12,09,14,20.30
2006,06,12,09,15,20.30
2006,06,12,09,16,20.20
2006,06,12,09,17,20.10
2006,06,12,09,18,20.10
2006,06,12,09,19,20.20
2006,06,12,09,20,20.20
2006,06,12,09,21,20.10
2006,06,12,09,22,20.00
2006,06,12,09,23,20.00
2006,06,12,09,24,20.10
2006,06,12,09,25,20.10
2006,06,12,09,26,20.20
2006,06,12,09,27,20.30
2006,06,12,09,28,20.40
2006,06,12,09,29,20.40
2006,06,12,09,30,20.40
2006,06,12,09,31,20.40
2006,06,12,09,32,20.40
2006,06,12,09,33,20.30
2006,06,12,09,34,20.30
2006,06,12,09,35,20.30
2006,06,12,09,36,20.30
2006,06,12,09,37,20.40
2006,06,12,09,38,20.40
2006,06,12,09,39,20.50
2006,06,12,09,40,20.60
2006,06,12,09,41,20.60
2006,06,12,09,42,20.60
2006,06,12,09,43,20.60
2006,06,12,09,44,20.60
2006,06,12,09,45,20.60
2006,06,12,09,46,20.60
2006,06,12,09,47,20.70
2006,06,12,09,48,20.70
2006,06,12,09,49,20.70
2006,06,12,09,50,20.80
2006,06,12,09,51,21.00
2006,06,12,09,52,21.10
2006,06,12,09,53,21.30
2006,06,12,09,54,21.50
2006,06,12,09,55,21.60
2006,06,12,09,56,21.60
2006,06,12,09,57,21.60
2006,06,12,09,58,21.60
2006,06,12,09,59,21.70
2006,06,12,10,00,21.80
2006,06,12,10,01,21.90
2006,06,12,10,02,21.80
2006,06,12,10,03,21.80
2006,06,12,10,04,21.80
2006,06,12,10,05,21.70
2006,06,12,10,06,21.80
2006,06,12,10,07,21.70
2006,06,12,10,08,21.60
2006,06,12,10,09,21.60
2006,06,12,10,10,21.40
2006,06,12,10,11,21.40
2006,06,12,10,12,21.40
2006,06,12,10,13,21.40
2006,06,12,10,14,21.40
2006,06,12,10,15,21.50
2006,06,12,10,16,21.30
2006,06,12,10,17,21.20
2006,06,12,10,18,21.10
2006,06,12,10,19,21.20
2006,06,12,10,20,21.20
2006,06,12,10,21,21.20
2006,06,12,10,22,21.30
2006,06,12,10,23,21.30
2006,06,12,10,24,21.30
2006,06,12,10,25,21.30
2006,06,12,10,26,21.30
2006,06,12,10,27,21.30
2006,06,12,10,28,21.30
2006,06,12,10,29,21.20
2006,06,12,10,30,21.20
2006,06,12,10,31,21.20
2006,06,12,10,32,21.30
2006,06,12,10,33,21.30
2006,06,12,10,34,21.20
2006,06,12,10,35,21.20
2006,06,12,10,36,21.30
2006,06,12,10,37,21.30
2006,06,12,10,38,21.30
2006,06,12,10,39,21.30
2006,06,12,10,40,21.30
2006,06,12,10,41,21.50
2006,06,12,10,42,21.60
2006,06,12,10,43,21.80
2006,06,12,10,44,21.80
2006,06,12,10,45,21.80
2006,06,12,10,46,21.90
2006,06,12,10,47,22.00
2006,06,12,10,48,22.00
2006,06,12,10,49,22.10
2006,06,12,10,50,22.20
2006,06,12,10,51,22.20
2006,06,12,10,52,22.30
2006,06,12,10,53,22.30
2006,06,12,10,54,22.30
2006,06,12,10,55,22.30
2006,06,12,10,56,22.30
2006,06,12,10,57,22.30
2006,06,12,10,58,22.20
2006,06,12,10,59,22.10
2006,06,12,11,00,22.00
2006,06,12,11,01,22.00
2006,06,12,11,02,22.00
2006,06,12,11,03,21.80
2006,06,12,11,04,21.80
2006,06,12,11,05,21.90
2006,06,12,11,06,21.90
2006,06,12,11,07,21.80
2006,06,12,11,08,21.70
2006,06,12,11,09,21.70
2006,06,12,11,10,21.70
2006,06,12,11,11,21.90
2006,06,12,11,12,21.90
2006,06,12,11,13,21.90
2006,06,12,11,14,22.00
2006,06,12,11,15,22.10
2006,06,12,11,16,22.10
2006,06,12,11,17,22.20
2006,06,12,11,18,22.20
2006,06,12,11,19,22.30
2006,06,12,11,20,22.40
2006,06,12,11,21,22.40
2006,06,12,11,22,22.50
2006,06,12,11,23,22.50
2006,06,12,11,24,22.30
2006,06,12,11,25,22.20
2006,06,12,11,26,22.00
2006,06,12,11,27,21.80
2006,06,12,11,28,21.60
2006,06,12,11,29,21.60
2006,06,12,11,30,21.80
2006,06,12,11,31,21.90
2006,06,12,11,32,22.00
2006,06,12,11,33,21.90
2006,06,12,11,34,21.90
2006,06,12,11,35,21.80
2006,06,12,11,36,21.70
2006,06,12,11,37,21.70
2006,06,12,11,38,21.90
2006,06,12,11,39,21.90
2006,06,12,11,40,21.70
2006,06,12,11,41,21.60
2006,06,12,11,42,21.60
2006,06,12,11,43,21.60
2006,06,12,11,44,21.60
2006,06,12,11,45,21.60
2006,06,12,11,46,21.60
2006,06,12,11,47,21.60
2006,06,12,11,48,21.60
2006,06,12,11,49,21.70
2006,06,12,11,50,21.70
2006,06,12,11,51,21.90
2006,06,12,11,52,21.90
2006,06,12,11,53,21.90
2006,06,12,11,54,22.00
2006,06,12,11,55,22.10
2006,06,12,11,56,22.10
2006,06,12,11,57,22.30
2006,06,12,11,58,22.40
2006,06,12,11,59,22.50
2006,06,12,12,00,22.60
2006,06,12,12,01,22.60
2006,06,12,12,02,22.50
2006,06,12,12,03,22.40
2006,06,12,12,04,22.40
2006,06,12,12,05,22.60
2006,06,12,12,06,22.60
2006,06,12,12,07,22.70
2006,06,12,12,08,22.80
2006,06,12,12,09,22.90
2006,06,12,12,10,23.10
2006,06,12,12,11,23.10
2006,06,12,12,12,23.00
2006,06,12,12,13,22.90
2006,06,12,12,14,22.90
2006,06,12,12,15,22.80
2006,06,12,12,16,22.70
2006,06,12,12,17,22.70
2006,06,12,12,18,22.60
2006,06,12,12,19,22.70
2006,06,12,12,20,22.70
2006,06,12,12,21,22.70
2006,06,12,12,22,22.70
2006,06,12,12,23,22.70
2006,06,12,12,24,22.80
2006,06,12,12,25,22.90
2006,06,12,12,26,23.00
2006,06,12,12,27,23.10
2006,06,12,12,28,23.20
2006,06,12,12,29,23.20
2006,06,12,12,30,23.30
2006,06,12,12,31,23.40
2006,06,12,12,32,23.40
2006,06,12,12,33,23.40
2006,06,12,12,34,23.40
2006,06,12,12,35,23.40
2006,06,12,12,36,23.20
2006,06,12,12,37,23.20
2006,06,12,12,38,23.30
2006,06,12,12,39,23.20
2006,06,12,12,40,23.20
2006,06,12,12,41,23.40
2006,06,12,12,42,23.50
2006,06,12,12,43,23.60
2006,06,12,12,44,23.70
2006,06,12,12,45,23.70
2006,06,12,12,46,23.70
2006,06,12,12,47,23.70
2006,06,12,12,48,23.70
2006,06,12,12,49,23.70
2006,06,12,12,50,23.60
2006,06,12,12,51,23.60
2006,06,12,12,52,23.60
2006,06,12,12,53,23.60
2006,06,12,12,54,23.60
2006,06,12,12,55,23.60
2006,06,12,12,56,23.40
2006,06,12,12,57,23.30
2006,06,12,12,58,23.10
2006,06,12,12,59,23.10
2006,06,12,13,00,23.10
2006,06,12,13,01,23.10
2006,06,12,13,02,23.20
2006,06,12,13,03,23.10
2006,06,12,13,04,23.00
2006,06,12,13,05,22.90
2006,06,12,13,06,22.90
2006,06,12,13,07,22.90
2006,06,12,13,08,22.90
2006,06,12,13,09,22.90
2006,06,12,13,10,22.90
2006,06,12,13,11,23.00
2006,06,12,13,12,23.10
2006,06,12,13,13,22.90
2006,06,12,13,14,22.90
2006,06,12,13,15,23.00
2006,06,12,13,16,22.90
2006,06,12,13,17,22.80
2006,06,12,13,18,22.80
2006,06,12,13,19,22.70
2006,06,12,13,20,22.80
2006,06,12,13,21,22.90
2006,06,12,13,22,23.00
2006,06,12,13,23,23.20
2006,06,12,13,24,23.10
2006,06,12,13,25,23.20
2006,06,12,13,26,23.30
2006,06,12,13,27,23.20
2006,06,12,13,28,23.30
2006,06,12,13,29,23.40
2006,06,12,13,30,23.60
2006,06,12,13,31,23.70
2006,06,12,13,32,23.70
2006,06,12,13,33,23.60
2006,06,12,13,34,23.70
2006,06,12,13,35,23.70
2006,06,12,13,36,23.70
2006,06,12,13,37,23.70
2006,06,12,13,38,23.70
2006,06,12,13,39,23.70
2006,06,12,13,40,23.70
2006,06,12,13,41,23.70
2006,06,12,13,42,23.70
2006,06,12,13,43,23.90
2006,06,12,13,44,24.10
2006,06,12,13,45,24.20
2006,06,12,13,46,24.20
2006,06,12,13,47,24.10
2006,06,12,13,48,24.10
2006,06,12,13,49,24.10
2006,06,12,13,50,24.20
2006,06,12,13,51,24.00
2006,06,12,13,52,23.90
2006,06,12,13,53,23.80
2006,06,12,13,54,23.90
2006,06,12,13,55,23.90
2006,06,12,13,56,23.80
2006,06,12,13,57,23.90
2006,06,12,13,58,23.90
2006,06,12,13,59,24.00
2006,06,12,14,00,24.10
2006,06,12,14,01,24.10
2006,06,12,14,02,24.10
2006,06,12,14,03,24.10
2006,06,12,14,04,24.10
2006,06,12,14,05,24.10
2006,06,12,14,06,24.00
2006,06,12,14,07,23.90
2006,06,12,14,08,23.90
2006,06,12,14,09,23.90
2006,06,12,14,10,23.90
2006,06,12,14,11,23.80
2006,06,12,14,12,23.80
2006,06,12,14,13,23.80
2006,06,12,14,14,23.80
2006,06,12,14,15,23.80
2006,06,12,14,16,23.80
2006,06,12,14,17,23.90
2006,06,12,14,18,23.80
2006,06,12,14,19,23.70
2006,06,12,14,20,23.70
2006,06,12,14,21,23.70
2006,06,12,14,22,23.70
2006,06,12,14,23,23.70
2006,06,12,14,24,23.70
2006,06,12,14,25,23.60
2006,06,12,14,26,23.70
2006,06,12,14,27,23.70
2006,06,12,14,28,23.60
2006,06,12,14,29,23.70
2006,06,12,14,30,23.70
2006,06,12,14,31,23.70
2006,06,12,14,32,23.70
2006,06,12,14,33,23.70
2006,06,12,14,34,23.70
2006,06,12,14,35,23.70
2006,06,12,14,36,23.70
2006,06,12,14,37,23.70
2006,06,12,14,38,23.70
2006,06,12,14,39,23.70
2006,06,12,14,40,23.70
2006,06,12,14,41,23.70
2006,06,12,14,42,23.70
2006,06,12,14,43,23.70
2006,06,12,14,44,23.70
2006,06,12,14,45,23.70
2006,06,12,14,46,23.70
2006,06,12,14,47,23.70
2006,06,12,14,48,23.90
2006,06,12,14,49,24.10
2006,06,12,14,50,24.20
2006,06,12,14,51,24.30
2006,06,12,14,52,24.40
2006,06,12,14,53,24.50
2006,06,12,14,54,24.40
2006,06,12,14,55,24.20
2006,06,12,14,56,23.90
2006,06,12,14,57,23.60
2006,06,12,14,58,23.40
2006,06,12,14,59,23.30
2006,06,12,15,00,23.30
2006,06,12,15,01,22.90
2006,06,12,15,02,22.70
2006,06,12,15,03,22.60
2006,06,12,15,04,22.40
2006,06,12,15,05,22.20
2006,06,12,15,06,22.10
2006,06,12,15,07,22.00
2006,06,12,15,08,22.00
2006,06,12,15,09,22.00
2006,06,12,15,10,21.90
2006,06,12,15,11,21.70
2006,06,12,15,12,21.60
2006,06,12,15,13,21.60
2006,06,12,15,14,21.60
2006,06,12,15,15,21.60
2006,06,12,15,16,21.60
2006,06,12,15,17,21.60
2006,06,12,15,18,21.60
2006,06,12,15,19,21.60
2006,06,12,15,20,21.60
2006,06,12,15,21,21.60
2006,06,12,15,22,21.60
2006,06,12,15,23,21.70
2006,06,12,15,24,21.80
2006,06,12,15,25,21.80
2006,06,12,15,26,21.80
2006,06,12,15,27,21.90
2006,06,12,15,28,21.90
2006,06,12,15,29,21.90
2006,06,12,15,30,21.90
2006,06,12,15,31,22.00
2006,06,12,15,32,22.00
2006,06,12,15,33,22.10
2006,06,12,15,34,22.10
2006,06,12,15,35,22.10
2006,06,12,15,36,22.10
2006,06,12,15,37,22.10
2006,06,12,15,38,22.20
2006,06,12,15,39,22.20
2006,06,12,15,40,22.10
2006,06,12,15,41,22.10
2006,06,12,15,42,22.00
2006,06,12,15,43,22.00
2006,06,12,15,44,21.90
2006,06,12,15,45,21.90
2006,06,12,15,46,22.00
2006,06,12,15,47,22.00
2006,06,12,15,48,22.10
2006,06,12,15,49,22.20
2006,06,12,15,50,22.20
2006,06,12,15,51,22.10
2006,06,12,15,52,22.10
2006,06,12,15,53,22.10
2006,06,12,15,54,22.10
2006,06,12,15,55,22.20
2006,06,12,15,56,22.20
2006,06,12,15,57,22.20
2006,06,12,15,58,22.20
2006,06,12,15,59,22.20
2006,06,12,16,00,22.20
2006,06,12,16,01,22.20
2006,06,12,16,02,22.30
2006,06,12,16,03,22.30
2006,06,12,16,04,22.20
2006,06,12,16,05,22.10
2006,06,12,16,06,22.00
2006,06,12,16,07,21.90
2006,06,12,16,08,21.90
2006,06,12,16,09,21.90
2006,06,12,16,10,21.90
2006,06,12,16,11,21.90
2006,06,12,16,12,22.00
2006,06,12,16,13,22.00
2006,06,12,16,14,22.00
2006,06,12,16,15,22.00
2006,06,12,16,16,22.10
2006,06,12,16,17,22.00
2006,06,12,16,18,21.90
2006,06,12,16,19,21.90
2006,06,12,16,20,21.90
2006,06,12,16,21,21.80
2006,06,12,16,22,21.70
2006,06,12,16,23,21.70
2006,06,12,16,24,21.60
2006,06,12,16,25,21.60
2006,06,12,16,26,21.60
2006,06,12,16,27,21.60
2006,06,12,16,28,21.60
2006,06,12,16,29,21.60
2006,06,12,16,30,21.60
2006,06,12,16,31,21.60
2006,06,12,16,32,21.70
2006,06,12,16,33,21.70
2006,06,12,16,34,21.60
2006,06,12,16,35,21.60
2006,06,12,16,36,21.60
2006,06,12,16,37,21.60
2006,06,12,16,38,21.60
2006,06,12,16,39,21.60
2006,06,12,16,40,21.60
2006,06,12,16,41,21.50
2006,06,12,16,42,21.40
2006,06,12,16,43,21.30
2006,06,12,16,44,21.20
2006,06,12,16,45,21.10
2006,06,12,16,46,20.80
2006,06,12,16,47,20.70
2006,06,12,16,48,20.50
2006,06,12,16,49,20.40
2006,06,12,16,50,20.40
2006,06,12,16,51,20.30
2006,06,12,16,52,20.30
2006,06,12,16,53,20.40
2006,06,12,16,54,20.40
2006,06,12,16,55,20.40
2006,06,12,16,56,20.40
2006,06,12,16,57,20.30
2006,06,12,16,58,20.30
2006,06,12,16,59,20.30
2006,06,12,17,00,20.30
2006,06,12,17,01,20.40
2006,06,12,17,02,20.40
2006,06,12,17,03,20.40
2006,06,12,17,04,20.30
2006,06,12,17,05,20.30
2006,06,12,17,06,20.30
2006,06,12,17,07,20.40
2006,06,12,17,08,20.40
2006,06,12,17,09,20.40
2006,06,12,17,10,20.40
2006,06,12,17,11,20.40
2006,06,12,17,12,20.40
2006,06,12,17,13,20.40
2006,06,12,17,14,20.40
2006,06,12,17,15,20.40
2006,06,12,17,16,20.50
2006,06,12,17,17,20.50
2006,06,12,17,18,20.50
2006,06,12,17,19,20.60